Saint Johnsbury, VT

6:12 AM EDT on October 01, 2016 (GMT -0400)
St. Johnsbury

Weather History for K1V4 - August, 2014

Change the Weather History Date:

Saturday, August 2, 2014

  Actual Average Record
Temperature  
Mean Temperature 69 °F 69 °F  
Max Temperature 79 °F 81 °F 98 °F (1975)
Min Temperature 58 °F 58 °F 39 °F (1953)
Degree Days  
Heating Degree Days 0 1  
Month to date heating degree days 0 1  
Since 1 June heating degree days 87 88  
Since 1 July heating degree days 18 16  
Cooling Degree Days 4 5  
Month to date cooling degree days 6 10  
Year to date cooling degree days 168 287  
Since 1 June cooling degree days 164 269  
Growing Degree Days 19 (Base 50)    
Moisture  
Dew Point 60 °F    
Average Humidity 76    
Maximum Humidity 97    
Minimum Humidity 54    
Precipitation  
Precipitation 0.00 in 0.16 in 1.47 in (1894)
Month to date precipitation 0.00 0.33  
Year to date precipitation 25.66 21.87  
Sea Level Pressure  
Sea Level Pressure 30.13 in    
Wind  
Wind Speed - (North)    
Max Wind Speed -    
Max Gust Speed -    
T = Trace of Precipitation, MM = Missing Value Source: NWS Daily Summary

Daily Weather History Graph

Daily Weather History Graph

Search for Another Location

Airport or City:

Trip Planner

Search our weather history database for the weather conditions in past years. The results will help you decide how hot, cold, wet, or windy it might be!

Date:

Astronomy

Aug. 02, 2014 Rise Set
Actual Time 5:36 AM EDT 8:11 PM EDT
Civil Twilight 5:02 AM EDT 8:44 PM EDT
Nautical Twilight 4:21 AM EDT 9:26 PM EDT
Astronomical Twilight 3:33 AM EDT 10:13 PM EDT
Moon 12:11 PM EDT (8/2) 11:11 PM EDT (8/2)
Length of Visible Light 15h 41m
Length of Day
14h 35m
Waxing Crescent, 36% of the Moon is Illuminated
Aug 2
Waxing Crescent
Aug 3
First Quarter
Aug 10
Full
Aug 17
Last Quarter
Aug 25
New

Hourly Weather History & Observations

Time (EDT) Temp. Dew Point Humidity Pressure Visibility Wind Dir Wind Speed Gust Speed Precip Events Conditions
12:54 AM 62.1 °F 60.1 °F 93% 30.17 in - North - - N/A   Unknown
1:54 AM 61.0 °F 59.0 °F 93% 30.17 in - North - - N/A   Unknown
2:54 AM 60.1 °F 59.0 °F 96% 30.16 in - North - - N/A   Unknown
3:54 AM 60.1 °F 57.9 °F 93% 30.16 in - North - - N/A   Unknown
4:54 AM 59.0 °F 57.9 °F 96% 30.16 in - North - - N/A   Unknown
5:54 AM 59.0 °F 57.0 °F 93% 30.17 in - North - - N/A   Unknown
6:54 AM 59.0 °F 57.9 °F 96% 30.17 in - North - - N/A   Unknown
7:54 AM 61.0 °F 57.9 °F 90% 30.19 in - North - - N/A   Unknown
8:54 AM 64.0 °F 60.1 °F 87% 30.18 in - North - - N/A   Unknown
9:54 AM 68.0 °F 63.0 °F 84% 30.17 in - North - - N/A   Unknown
10:54 AM 71.1 °F 63.0 °F 75% 30.17 in - North - - N/A   Unknown
11:54 AM 73.9 °F 64.0 °F 71% 30.16 in - North - - N/A   Unknown
12:54 PM 75.9 °F 62.1 °F 62% 30.14 in - North - - N/A   Unknown
1:54 PM 78.1 °F 62.1 °F 58% 30.11 in - North - - N/A   Unknown
2:54 PM 79.0 °F 60.1 °F 52% 30.09 in - North - - N/A   Unknown
3:54 PM 78.1 °F 61.0 °F 56% 30.08 in - North - - N/A   Unknown
4:54 PM 79.0 °F 60.1 °F 52% 30.06 in - North - - N/A   Unknown
5:54 PM 78.1 °F 60.1 °F 54% 30.06 in - North - - N/A   Unknown
6:54 PM 73.9 °F 59.0 °F 59% 30.07 in - North - - N/A   Unknown
7:54 PM 72.0 °F 60.1 °F 66% 30.07 in - North - - N/A   Unknown
8:54 PM 70.0 °F 57.9 °F 65% 30.10 in - North - - N/A   Unknown
9:54 PM 68.0 °F 57.9 °F 70% 30.10 in - North - - N/A   Unknown
10:54 PM 64.0 °F 59.0 °F 84% 30.09 in - North - - N/A   Unknown
11:54 PM 62.1 °F 59.0 °F 90% 30.09 in - North - - N/A   Unknown